Torna al catalogo

THORAD AGENA D DEB

AttivoSSO
NORAD 5692·DEBRIS·🇺🇸 United States

Lanciato Apr 8, 1970 da Vandenberg Space Force Base

Loading…

Prossimi Passaggi (prossime 24 ore)

TLE

AggiornatoSource: Space-Track

Epoca: Sep 14, 2026, 00:11 UTC

1 05692U 70025LX  26257.00795845  .00000149  00000-0  26645-3 0  9996
2 05692  99.3842 279.0742 0114733 132.4807 258.4389 13.54382040576405

Traccia THORAD AGENA D DEB in tempo reale con AllMySat

Download on the App Store